Terminal Aerodrome Forecast
Issued by NWS

Home | Current Version | Previous Version | Text Only | Print | Product List | Glossary On
Versions: 1 2 3 4 5 6 7 8 9 10 11 12 13 14 15 16 17 18 19 20 21 22 23 24
000
FTUS43 KSGF 252131 AAB
TAFJLN
TAF AMD
KJLN 252131Z 2522/2618 19014G19KT P6SM BKN035
     FM260000 19010KT P6SM SCT035
     FM260700 19009KT P6SM SCT025 BKN040
     FM261500 19012KT P6SM BKN050=

USA.gov is the U.S. government's official web portal to all federal, state and local government web resources and services.